FENGYUN 1C DEB, 32178

Orbit data source: Space-Track

FENGYUN 1C DEB, 32178 is space debris in SSO originally from a launch on Mon, 10 May 1999 UTC launched from the Taiyaun Space Center, China (TSC). Fengyun 1C debris stems from the Chinese weather satellite Fengyun-1C, which was intentionally destroyed by a Chinese anti-satellite missile in 2007. This event dramatically increased the amount of space debris, with thousands of trackable fragments posing hazards to satellites and human spaceflight. The Fengyun 1C debris cloud has become a focal point in discussions about space sustainability and the need for international regulations to prevent the creation of new debris.

Loading next visibility...
Identifier
32178, 1999-025CTY
Orbit
SSO
Country
Flag of CNCN / PRC
Related business
Manufacturer
Unknown
Mission
Spacecraft
Bus & Motor
Unknown
Mass
Unknown
Launch date (UTC)
1999-05-10 (27 years ago)
Launch vehicle
Unknown
Launch site
Taiyaun Space Center, China (TSC)
Object type
Payload
Rocket body
Debris
Shape & HBR
Unknown shape, 0.1 m
Radar Cross Section
Small (<0.1 m²)

Expand to show TLE details & history
Last TLE update: 2 weeks ago

TLE from 2 weeks ago
0 FENGYUN 1C DEB
1 32178U 99025CTY 26221.96257220  .00000824  00000-0  36721-3 0  9998
2 32178 100.2926 269.0571 0093015  22.8734 337.6542 14.24034346674218
Epoch: 2026-08-09T23:06Z
TLE epoch observation values (Epoch: 2026-08-09T23:06:06.238Z)
Latitude
0.00001°
Longitude
-35.92093°
Altitude
752.831 km
Speed
7.51 km/s
True Right ascension
17h 56m 13s
True Declination
0° 00' 00"
Sunlit
Object was in full shadow at epoch
Visualization orbit readout
Latitude
Unknown
Longitude
Unknown
Altitude
Unknown
Speed
Unknown
Apparent Right ascension
Unknown
Apparent Declination
Unknown
Sunlit
N/A
Visualization observer readout
Local Sidereal Time
11:09:51
Azimuth
Unknown
Elevation
Unknown
Doppler factor
Unknown
Orbital elements
Apogee altitude
875.828 km
Perigee altitude
742.126 km
Semi-major axis
7,187.114 km
Eccentricity
0.0093
Inclination
100.2926°
RAAN
269.0571°
Arg. of periapsis
22.8734°
True anomaly
337.24456°
Mean anomaly
337.6542°
Eccentric anomaly
337.44982°
Mean motion
3.56214 °/min
Orbital period
101.06 mins
BSTAR
0.00036721
Loading maneuver chart data...
Computing Atmospheric mass density...
Loading historical data...
Loading historical data...
Loading historical data...
Loading historical data...
Loading historical data...
Loading historical data...
Loading historical data...

Documentation

Showing up to 5 results
|